カタログに戻る

SL-24 DEB

運用中SSO
NORAD 31120·DEBRIS·🇷🇺 Russia

打ち上げ Apr 17, 2007 から Baikonur Cosmodrome

Loading…

次のパス (今後24時間)

TLE

最新Source: Space-Track

元期: Sep 14, 2026, 14:29 UTC

1 31120U 07012D   26257.60390582  .00001084  00000-0  13219-3 0  9994
2 31120  97.8119 217.7946 0006290 152.4303 207.7247 14.85339672 45753

AllMySatでSL-24 DEBをリアルタイム追跡

Download on the App Store